星链-4444 (STARLINK-4444 )

导读 | 星芒AI

STARLINK-4444 是 SpaceX Starlink 项目中的一颗低轨通信卫星,属于该星座的众多组网卫星之一。它运行在约 550 公里的轨道高度,旨在为全球用户提供高速互联网服务。该卫星采用先进的相控阵天线和激光通信技术,以提升连接速度和稳定性。STARLINK-4444 于 2023 年由猎鹰 9 号火箭发射入轨,是 SpaceX 扩展全球宽带覆盖计划的重要组成部分。

基本信息
目录编号:
53507
目录名称:
STARLINK-4444
国际标识:
2022-099AU
轨道中心:
EARTH
卫星名称:
星链-4444
卫星全名:
星链-4444 (STARLINK-4444 )
卫星状态:
已陨落 最后检测时间 2025-05-23
发射日期:
2022-08-12 UTC
国别 :
美国 (US)
星等 :
--
轨道信息
数据来源 国际轨道数据
星历时间: 2025-05-23T04:46:11+0800
轨道信息已过期166天
半长轴: 6520.312km
偏心率: 0.0012908
轨道倾角: 97.640°
近地点辐角 252.985°
升交点赤经 273.800°
平近点角 264.229°
近地点: 133.76km
远地点: 150.594km
周期: 87.330分钟
每日圈数: 16.489226
详细信息
固有亮度:
5
最大亮度:
2.5
卫星平台:
Starlink v1.5
覆盖范围:
全球
运营商:
太空探索技术公司
运营商所在国:
美国
制造商(研发单位):
太空探索技术公司
制造商所在国:
美国
使用方式:
暂无
卫星简介
星链(Starlink)计划是由太空探索技术公司(SpaceX)提出的一个巨型低轨卫星互联网星座项目,计划在2019年至2024年间在太空搭建由约1.2万颗卫星组成的“星链”网络,其中1584颗将部署在地球上空550千米处的近地轨道,并从2020年开始工作。该卫星仍在工作。